, FL

(GMT )
Crestview

Weather History for KEGI - November, 2012

Change the Weather History Date:

Saturday, November 10, 2012

  Actual Average Record
Temperature  
Mean Temperature 54 °F -  
Max Temperature 72 °F - - ()
Min Temperature 37 °F - - ()
Degree Days  
Heating Degree Days 10    
Growing Degree Days 4 (Base 50)    
Moisture  
Dew Point 47 °F    
Average Humidity 71    
Maximum Humidity 97    
Minimum Humidity 40    
Precipitation  
Precipitation 0.00 in - - ()
Sea Level Pressure  
Sea Level Pressure 30.28 in    
Wind  
Wind Speed 3 mph (SE)    
Max Wind Speed 10 mph    
Max Gust Speed -    
Visibility 10 miles    
Events      
Averages and records for this station are not official NWS values.
T = Trace of Precipitation, MM = Missing Value Source: NWS Daily Summary

Daily Weather History Graph

Daily Weather History Graph

Search for Another Location

Airport or City:

Trip Planner

Search our weather history database for the weather conditions in past years. The results will help you decide how hot, cold, wet, or windy it might be!

Date:

Astronomy

Nov. 10, 2012 Rise Set
Actual Time 6:08 AM CST 4:51 PM CST
Civil Twilight 5:43 AM CST 5:16 PM CST
Nautical Twilight 5:14 AM CST 5:45 PM CST
Astronomical Twilight 4:45 AM CST 6:13 PM CST
Moon 2:26 AM CST (11/10) 2:26 PM CST (11/10)
Length of Visible Light 11h 33m
Length of Day
10h 42m
Waning Crescent, 14% of the Moon is Illuminated
Nov 10
Waning Crescent
Nov 13
New
Nov 20
First Quarter
Nov 28
Full
Dec 6
Last Quarter

Hourly Weather History & Observations

Time (CST) Temp. Dew Point Humidity Pressure Visibility Wind Dir Wind Speed Gust Speed Precip Events Conditions
12:55 AM 39.6 °F 37.8 °F 93% 30.26 in 10.0 mi Calm Calm - N/A   Clear
1:55 AM 39.4 °F 38.1 °F 95% 30.26 in 10.0 mi Calm Calm - N/A   Clear
2:55 AM 38.8 °F 37.4 °F 95% 30.26 in 10.0 mi Calm Calm - N/A   Clear
3:55 AM 37.6 °F 36.0 °F 94% 30.26 in 10.0 mi Calm Calm - N/A   Clear
6:55 AM 40.6 °F 39.9 °F 97% 30.32 in 10.0 mi Calm Calm - N/A   Clear
7:55 AM 53.6 °F 47.5 °F 80% 30.32 in 10.0 mi ENE 3.5 mph - N/A   Clear
8:55 AM 63.0 °F 47.8 °F 58% 30.33 in 10.0 mi East 4.6 mph - N/A   Clear
9:55 AM 67.6 °F 44.2 °F 43% 30.34 in 10.0 mi Variable 5.8 mph - N/A   Clear
10:55 AM 69.6 °F 45.7 °F 42% 30.32 in 10.0 mi Variable 5.8 mph - N/A   Clear
11:55 AM 71.4 °F 46.0 °F 40% 30.30 in 10.0 mi SSE 9.2 mph - N/A   Clear
12:55 PM 72.5 °F 48.4 °F 42% 30.27 in 10.0 mi SSE 10.4 mph - N/A   Clear
1:55 PM 72.5 °F 49.8 °F 45% 30.25 in 10.0 mi South 9.2 mph - N/A   Clear
2:55 PM 71.8 °F 51.4 °F 49% 30.25 in 10.0 mi South 8.1 mph - N/A   Clear
3:55 PM 70.2 °F 52.7 °F 54% 30.26 in 10.0 mi SSE 6.9 mph - N/A   Clear
4:55 PM 63.9 °F 54.0 °F 70% 30.27 in 10.0 mi South 6.9 mph - N/A   Clear
5:55 PM 61.2 °F 54.1 °F 78% 30.28 in 10.0 mi SSE 3.5 mph - N/A   Clear
6:55 PM 57.4 °F 52.7 °F 84% 30.28 in 10.0 mi South 3.5 mph - N/A   Clear
7:55 PM 54.0 °F 50.5 °F 88% 30.28 in 10.0 mi SE 4.6 mph - N/A   Clear
8:55 PM 59.0 °F 52.5 °F 79% 30.30 in 10.0 mi ESE 4.6 mph - N/A   Clear
9:55 PM 58.6 °F 52.7 °F 81% 30.29 in 8.0 mi ESE 5.8 mph - N/A   Clear
10:55 PM 56.5 °F 50.2 °F 79% 30.27 in 10.0 mi East 4.6 mph - N/A   Clear
11:55 PM 53.8 °F 48.4 °F 82% 30.26 in 10.0 mi Calm Calm - N/A   Clear